Location: ?????
(30.2541°N, 31.0910°E)
Time: 21:42:02
(UTC+00:00)

Cosmos 2100 Rocket - Visible Passes

Search period start: 30 March 2023 00:00
Search period end: 09 April 2023 00:00
Orbit: 956 x 999 km, 82.9° (Epoch: 30 March)

Date Brightness Start Highest point End Pass type
(mag) Time Alt. Az. Time Alt. Az. Time Alt. Az.
30 Mar 7.0 18:04:09 10° WNW 18:06:51 13° W 18:09:32 10° WSW visible
31 Mar 4.6 16:42:04 10° NNW 16:48:17 63° W 16:54:25 10° S visible
01 Apr 6.0 17:08:48 10° NNW 17:14:13 31° W 17:19:35 10° SSW visible
02 Apr 6.9 17:36:35 10° NW 17:39:59 15° W 17:43:21 10° WSW visible
04 Apr 5.9 16:41:41 10° NNW 16:47:19 36° W 16:52:52 10° SSW visible
05 Apr 6.9 17:09:11 10° NW 17:13:06 18° W 17:17:01 10° SW visible
06 Apr 7.1 03:02:47 10° ESE 03:06:42 17° E 03:10:39 10° NE visible
08 Apr 6.9 16:41:51 10° NW 16:46:13 20° W 16:50:33 10° SW visible
